This is the latest recevied weather packets stored in our database for station/object W4NRG-1. If no packets are shown the sender has not sent any weather packets the latest 1 day(s).
| Time | Temp. | Humidity | Pressure | Rain* | Wind** | Luminosity | Snow |
|---|---|---|---|---|---|---|---|
| 1836274371 | 18.33° C | 98% | 1018.7 hPa | 0 mm | 0 m/s | - | - |
| 1836274225 | 18.33° C | 98% | 1019 hPa | 0 mm | 0 m/s | - | - |
| 1778041443 | 21.11° C | 63% | 1013.3 hPa | 0 mm | 0.89 m/s, 17° | - | - |
| 1778041141 | 21.11° C | 63% | 1013.3 hPa | 0 mm | 2.24 m/s, 74° | - | - |
| 1778040838 | 21.11° C | 62% | 1013.1 hPa | 0 mm | 1.79 m/s, 322° | - | - |
| 1778040535 | 21.11° C | 62% | 1013.3 hPa | 0 mm | 1.79 m/s, 5° | - | - |
| 1778040232 | 21.11° C | 61% | 1013.4 hPa | 0 mm | 1.79 m/s, 33° | - | - |
| 1778039928 | 21.67° C | 61% | 1013.3 hPa | 0 mm | 0 m/s | - | - |
| 1778039626 | 21.67° C | 61% | 1013.5 hPa | 0 mm | 1.34 m/s, 35° | - | - |
| 1778039323 | 21.67° C | 60% | 1013.2 hPa | 0 mm | 0.89 m/s, 330° | - | - |
| 1778039020 | 21.67° C | 59% | 1013.2 hPa | 0 mm | 0.89 m/s, 70° | - | - |
| 1778038717 | 21.67° C | 59% | 1013.2 hPa | 0 mm | 1.79 m/s, 16° | - | - |
| 1778038414 | 21.67° C | 58% | 1013.5 hPa | 0 mm | 1.34 m/s, 304° | - | - |
| 1778038111 | 21.67° C | 57% | 1013.2 hPa | 0 mm | 1.34 m/s, 63° | - | - |
| 1778037807 | 21.67° C | 57% | 1013.3 hPa | 0 mm | 2.24 m/s, 41° | - | - |
| 1778037505 | 21.67° C | 56% | 1013.4 hPa | 0 mm | 0.89 m/s, 351° | - | - |
| 1778037202 | 21.67° C | 56% | 1013.3 hPa | 0 mm | 1.34 m/s, 2° | - | - |
| 1778036899 | 21.67° C | 55% | 1013.3 hPa | 0 mm | 1.79 m/s, 76° | - | - |
| 1778036597 | 22.22° C | 55% | 1013.2 hPa | 0 mm | 2.24 m/s, 316° | - | - |
| 1778036294 | 22.22° C | 54% | 1013.3 hPa | 0 mm | 1.34 m/s, 307° | - | - |
| 1778035990 | 22.22° C | 54% | 1013.4 hPa | 0 mm | 1.34 m/s, 305° | - | - |
| 1778035688 | 22.22° C | 53% | 1013.4 hPa | 0 mm | 1.34 m/s, 316° | - | - |
| 1778035384 | 22.22° C | 53% | 1013.4 hPa | 0 mm | 1.79 m/s, 344° | - | - |
| 1778035080 | 22.22° C | 53% | 1013.4 hPa | 0 mm | 2.68 m/s, 39° | - | - |
| 1778034778 | 22.22° C | 53% | 1013.5 hPa | 0 mm | 1.34 m/s, 94° | - | - |
* Rain latest hour (hover to see other rain measurements)
** Current wind speed in m/s (hover to see current wind gust speed)